Location: Roanoke
(37.2710°N, 79.9420°W)
Time: 12:49:22
(UTC-05:00)

Courier 1B Rocket - Pass Details

Date: 24 November 2019
Orbit: 920 x 1202 km, 28.2° (Epoch: 05 December)

Event Time Altitude Azimuth Distance (km) Brightness Sun altitude
Rises 11:34:49 0° 212° (SSW) 3,564 8.6 31.7°
Reaches altitude 10° 11:38:25 10° 192° (SSW) 2,654 8.6 31.8°
Maximum altitude 11:42:14 16° 154° (SSE) 2,260 8.5 31.9°
Drops below altitude 10° 11:46:10 10° 118° (ESE) 2,754 7.9 31.9°
Sets 11:50:00 0° 98° (E) 3,765 8.2 32.0°
